Alburaq — 3ESY9 — position and weather

sailwx.info

Track history (hours):
 
Tides and Currents Weather Stations Pressure Air Temp Water Temp Dewpoint Dewpoint Depression Visibility Wind Speed Wind Dir Waves Ship Positions

Alburaq

Last reported at 2017-Oct-21 19:36 UTC. Time now 2017-Oct-22 05:01 UTC.
Position N 37°02' E 001°27'.

Length 250 m; draft 13 m.

Type: Tanker. MMSI: 370467000.

Date/timePositionNaut miles runAvg speedWind from/ knotsBaromVisibWave heightAir tempDewpointWater temp
2017-Oct-21 19:36N 37°02' E 001°27'112.8
2017-Oct-21 19:31N 37°01' E 001°25'712.9
2017-Oct-21 19:00N 36°59' E 001°17'612.8
2017-Oct-21 18:31N 36°58' E 001°10'712.9
2017-Oct-21 18:00N 36°56' E 001°02'713.2
2017-Oct-21 17:30N 36°54' E 000°54'713.3
2017-Oct-21 17:00N 36°53' E 000°46'713.6
2017-Oct-21 16:30N 36°51' E 000°38'713.6
2017-Oct-21 16:01N 36°49' E 000°29'713.5
2017-Oct-21 15:30N 36°47' E 000°21'713.4
2017-Oct-21 15:00N 36°46' E 000°13'713.5
2017-Oct-21 14:31N 36°44' E 000°05'1513.5
2017-Oct-21 13:24N 36°40' W 000°13'613.3
2017-Oct-21 12:55N 36°38' W 000°21'23914.2
2017-Oct-20 20:05N 36°01' W 005°14'116.5
2017-Oct-20 20:00N 36°01' W 005°16'916.9
2017-Oct-20 19:29N 35°58' W 005°26'25911.8
2017-Oct-19 21:28N 38°12' W 010°03'713.8
2017-Oct-19 20:56N 38°19' W 010°05'813.7
2017-Oct-19 20:23N 38°27' W 010°07'513.3
2017-Oct-19 20:00N 38°32' W 010°09'713.5
2017-Oct-19 19:30N 38°38' W 010°10'712.9
2017-Oct-19 19:00N 38°45' W 010°11'713.4
2017-Oct-19 18:30N 38°51' W 010°11'714.1
2017-Oct-19 18:00N 38°58' W 010°11'714.2
2017-Oct-19 17:30N 39°06' W 010°11'713.9
2017-Oct-19 17:01N 39°12' W 010°11'53412.7
2017-Oct-17 23:07N 47°45' W 006°45'412.8
2017-Oct-17 22:46N 47°49' W 006°42'612.7
2017-Oct-17 22:20N 47°54' W 006°38'10711.9
2017-Oct-17 13:22N 49°15' W 004°54'2411.8
2017-Oct-17 11:21N 49°27' W 004°22'813.1
2017-Oct-17 10:45N 49°31' W 004°11'913.5
2017-Oct-17 10:03N 49°36' W 003°59'813.6
2017-Oct-17 09:26N 49°40' W 003°48'1213.4
2017-Oct-17 08:34N 49°46' W 003°32'113.1
2017-Oct-17 08:30N 49°46' W 003°31'612.6
2017-Oct-17 08:01N 49°49' W 003°23'612.0
2017-Oct-17 07:30N 49°52' W 003°15'611.4
2017-Oct-17 07:01N 49°55' W 003°07'510.7
2017-Oct-17 06:30N 49°58' W 002°60'5 9.6
2017-Oct-17 06:00N 49°59' W 002°53'4 8.5
2017-Oct-17 05:29N 50°01' W 002°46'4 8.3
2017-Oct-17 05:00N 50°02' W 002°40'6110.9
2017-Oct-16 23:26N 50°18' W 001°09'2713.1
2017-Oct-16 21:25N 50°25' W 000°28'1311.9
2017-Oct-16 20:18N 50°28' W 000°08'311.3
2017-Oct-16 20:00N 50°29' W 000°03'611.2
2017-Oct-16 19:30N 50°30' E 000°05'511.0
2017-Oct-16 19:00N 50°32' E 000°14'510.7
2017-Oct-16 18:30N 50°33' E 000°22'511.0
2017-Oct-16 18:00N 50°35' E 000°30'611.1
2017-Oct-16 17:30N 50°37' E 000°38'611.4
2017-Oct-16 17:00N 50°40' E 000°46'612.1
2017-Oct-16 16:30N 50°44' E 000°53'612.6
2017-Oct-16 16:00N 50°47' E 001°01'713.1
2017-Oct-16 15:28N 50°51' E 001°10'613.3
2017-Oct-16 15:00N 50°55' E 001°19'713.3
2017-Oct-16 14:30N 51°00' E 001°25'1212.2
2017-Oct-16 13:30N 51°09' E 001°39'611.5
2017-Oct-16 13:00N 51°13' E 001°45'511.0
2017-Oct-16 12:30N 51°17' E 001°50'611.2
2017-Oct-16 12:00N 51°23' E 001°53'510.9
2017-Oct-16 11:30N 51°27' E 001°57'611.4
2017-Oct-16 11:00N 51°32' E 002°04'611.3
2017-Oct-16 10:30N 51°36' E 002°10'611.2
2017-Oct-16 10:00N 51°40' E 002°16'611.5
2017-Oct-16 09:30N 51°44' E 002°22'612.0
2017-Oct-16 09:00N 51°48' E 002°29'612.6
2017-Oct-16 08:30N 51°53' E 002°36'713.1
2017-Oct-16 08:00N 51°58' E 002°42'813.5
2017-Oct-16 07:24N 52°05' E 002°50'913.7
2017-Oct-16 06:46N 52°11' E 002°59'613.8
2017-Oct-16 06:19N 52°16' E 003°05'713.7
2017-Oct-16 05:49N 52°22' E 003°12'413.0
2017-Oct-16 05:30N 52°24' E 003°18'713.4
2017-Oct-16 05:00N 52°26' E 003°28'713.2
2017-Oct-16 04:30N 52°29' E 003°39'612.6
2017-Oct-16 04:00N 52°30' E 003°48'612.7
2017-Oct-16 03:30N 52°30' E 003°59'612.4
2017-Oct-16 03:00N 52°30' E 004°09'611.4
2017-Oct-16 02:30N 52°30' E 004°18'510.6
2017-Oct-16 02:00N 52°29' E 004°27'5 9.9
2017-Oct-16 01:30N 52°28' E 004°35'1 1.9
2017-Oct-16 01:00N 52°28' E 004°37'0 0.1
2017-Oct-16 00:30N 52°28' E 004°37'1 2.1
2017-Oct-16 00:00N 52°28' E 004°38'3 5.5
2017-Oct-15 23:31N 52°26' E 004°42'2 4.4
2017-Oct-15 23:01N 52°25' E 004°45'0 0.3
2017-Oct-15 22:27N 52°25' E 004°45'0 0.0
2017-Oct-15 22:00N 52°25' E 004°45'0 0.0
2017-Oct-15 21:00N 52°25' E 004°45'0 0.0
2017-Oct-15 20:30N 52°25' E 004°45'0 0.0
2017-Oct-15 20:00N 52°25' E 004°45'0 0.0
2017-Oct-15 19:27N 52°25' E 004°45'0 0.0
2017-Oct-15 19:00N 52°25' E 004°45'0 0.0
2017-Oct-15 18:18N 52°25' E 004°45'0 0.0
2017-Oct-15 17:57N 52°25' E 004°45'0 0.0
2017-Oct-15 17:30N 52°25' E 004°45'0 0.0
2017-Oct-15 16:54N 52°25' E 004°45'0 0.0
2017-Oct-15 16:18N 52°25' E 004°45'0 0.0
2017-Oct-15 16:00N 52°25' E 004°45'0 0.0
2017-Oct-15 15:30N 52°25' E 004°45'0 0.0
2017-Oct-15 15:00N 52°25' E 004°45'0 0.0
2017-Oct-15 14:00N 52°25' E 004°45'0 0.0
2017-Oct-15 13:30N 52°25' E 004°45'0 0.0
2017-Oct-15 12:57N 52°25' E 004°45'0 0.0
2017-Oct-15 12:30N 52°25' E 004°45'0 0.0
2017-Oct-15 11:57N 52°25' E 004°45'0 0.0
2017-Oct-15 11:21N 52°25' E 004°45'0 0.0
2017-Oct-15 10:51N 52°25' E 004°45'0 0.0
2017-Oct-15 10:30N 52°25' E 004°45'0 0.0
2017-Oct-15 10:00N 52°25' E 004°45'0 0.0
2017-Oct-15 09:24N 52°25' E 004°45'0 0.0
2017-Oct-15 08:51N 52°25' E 004°45'0 0.0
2017-Oct-15 08:21N 52°25' E 004°45'0 0.0
2017-Oct-15 07:54N 52°25' E 004°45'0 0.0
2017-Oct-15 07:24N 52°25' E 004°45'0 0.0
2017-Oct-15 07:00N 52°25' E 004°45'0 0.0
2017-Oct-15 06:24N 52°25' E 004°45'0 0.0
2017-Oct-15 05:57N 52°25' E 004°45'0 0.0
2017-Oct-15 05:30N 52°25' E 004°45'0 0.0
2017-Oct-15 05:00N 52°25' E 004°45'0 0.0
2017-Oct-15 04:30N 52°25' E 004°45'0 0.0
2017-Oct-15 03:54N 52°25' E 004°45'0 0.0
2017-Oct-15 03:30N 52°25' E 004°45'0 0.0
2017-Oct-15 02:48N 52°25' E 004°45'0 0.0
2017-Oct-15 02:24N 52°25' E 004°45'0 0.0
2017-Oct-15 02:00N 52°25' E 004°45'0 0.0
2017-Oct-15 01:24N 52°25' E 004°45'0 0.0
2017-Oct-15 00:57N 52°25' E 004°45'0 0.0
2017-Oct-15 00:27N 52°25' E 004°45'0 0.0
2017-Oct-15 00:00N 52°25' E 004°45'0 0.0
2017-Oct-14 23:30N 52°25' E 004°45'0 0.0
2017-Oct-14 23:00N 52°25' E 004°45'0 0.0
2017-Oct-14 22:27N 52°25' E 004°45'0 0.0
2017-Oct-14 22:00N 52°25' E 004°45'0 0.0
2017-Oct-14 21:30N 52°25' E 004°45'0 0.0
2017-Oct-14 21:00N 52°25' E 004°45'0 0.0
2017-Oct-14 20:30N 52°25' E 004°45'0 0.0
2017-Oct-14 20:00N 52°25' E 004°45'0 0.0
2017-Oct-14 19:30N 52°25' E 004°45'0 0.0
2017-Oct-14 19:00N 52°25' E 004°45'0 0.0
2017-Oct-14 18:30N 52°25' E 004°45'0 0.0
2017-Oct-14 18:00N 52°25' E 004°45'0 0.0
2017-Oct-14 17:24N 52°25' E 004°45'0 0.0
2017-Oct-14 16:57N 52°25' E 004°45'0 0.0
2017-Oct-14 16:24N 52°25' E 004°45'0 0.0
2017-Oct-14 15:51N 52°25' E 004°45'0 0.0
2017-Oct-14 15:30N 52°25' E 004°45'0 0.0
2017-Oct-14 15:00N 52°25' E 004°45'0 0.0
2017-Oct-14 14:30N 52°25' E 004°45'0 0.0
2017-Oct-14 14:00N 52°25' E 004°45'0 0.0
2017-Oct-14 13:27N 52°25' E 004°45'0 0.0
2017-Oct-14 12:54N 52°25' E 004°45'0 0.0
2017-Oct-14 12:21N 52°25' E 004°45'0 0.0
2017-Oct-14 11:57N 52°25' E 004°45'0 0.0
2017-Oct-14 11:30N 52°25' E 004°45'0 0.0
2017-Oct-14 11:00N 52°25' E 004°45'0 0.0
2017-Oct-14 10:30N 52°25' E 004°45'0 0.0
2017-Oct-14 09:48N 52°25' E 004°45'0 0.0
2017-Oct-14 09:30N 52°25' E 004°45'0 0.0
2017-Oct-14 09:00N 52°25' E 004°45'0 0.0
2017-Oct-14 08:27N 52°25' E 004°45'0 0.0
2017-Oct-14 05:57N 52°25' E 004°45'0 0.0
2017-Oct-14 05:30N 52°25' E 004°45'0 0.0
2017-Oct-14 05:00N 52°25' E 004°45'0 0.0
2017-Oct-14 04:30N 52°25' E 004°45'0 0.0
2017-Oct-14 03:57N 52°25' E 004°45'0 0.0
2017-Oct-14 03:21N 52°25' E 004°45'0 0.0
2017-Oct-14 03:00N 52°25' E 004°45'0 0.0
2017-Oct-14 02:30N 52°25' E 004°45'0 0.0
2017-Oct-14 01:57N 52°25' E 004°45'0 0.0
2017-Oct-14 01:30N 52°25' E 004°45'0 0.0
2017-Oct-14 00:57N 52°25' E 004°45'0 0.0
2017-Oct-14 00:27N 52°25' E 004°45'0 0.0
2017-Oct-14 00:00N 52°25' E 004°45'0 0.0
2017-Oct-13 23:30N 52°25' E 004°45'0 0.0
2017-Oct-13 23:00N 52°25' E 004°45'0 0.0
2017-Oct-13 22:27N 52°25' E 004°45'0 0.0
2017-Oct-13 21:42N 52°25' E 004°45'0 0.0
2017-Oct-13 21:30N 52°25' E 004°45'0 0.0
2017-Oct-13 20:57N 52°25' E 004°45'0 0.0
2017-Oct-13 20:24N 52°25' E 004°45'0 0.0
2017-Oct-13 20:00N 52°25' E 004°45'0 0.0
2017-Oct-13 19:30N 52°25' E 004°45'0 0.0
2017-Oct-13 19:00N 52°25' E 004°45'0 0.0
2017-Oct-13 18:27N 52°25' E 004°45'0 0.0
2017-Oct-13 17:57N 52°25' E 004°45'0 0.0
2017-Oct-13 17:30N 52°25' E 004°45'0 0.0
2017-Oct-13 16:51N 52°25' E 004°45'0 0.0
2017-Oct-13 16:18N 52°25' E 004°45'0 0.0
2017-Oct-13 15:48N 52°25' E 004°45'0 0.0
2017-Oct-13 15:30N 52°25' E 004°45'0 0.0
2017-Oct-13 15:00N 52°25' E 004°45'0 0.0
2017-Oct-13 14:30N 52°25' E 004°45'0 0.0
2017-Oct-13 13:54N 52°25' E 004°45'0 0.0
2017-Oct-13 13:30N 52°25' E 004°45'0 0.0
2017-Oct-13 13:00N 52°25' E 004°45'0 0.0
2017-Oct-13 12:30N 52°25' E 004°45'0 0.0
2017-Oct-13 11:51N 52°25' E 004°45'0 0.0
2017-Oct-13 11:27N 52°25' E 004°45'0 0.0
2017-Oct-13 11:00N 52°25' E 004°45'0 0.0
2017-Oct-13 10:30N 52°25' E 004°45'0 0.0
2017-Oct-13 09:57N 52°25' E 004°45'0 0.0
2017-Oct-13 09:27N 52°25' E 004°45'0 0.0
2017-Oct-13 08:30N 52°25' E 004°45'0 0.0
2017-Oct-13 08:00N 52°25' E 004°45'0 0.0
2017-Oct-13 07:30N 52°25' E 004°45'0 0.0
2017-Oct-13 06:54N 52°25' E 004°45'0 0.0
2017-Oct-13 06:30N 52°25' E 004°45'0 0.0
2017-Oct-13 06:00N 52°25' E 004°45'0 0.0
2017-Oct-13 05:30N 52°25' E 004°45'0 0.0
2017-Oct-13 05:00N 52°25' E 004°45'0 0.0
2017-Oct-13 04:30N 52°25' E 004°45'0 0.0
2017-Oct-13 03:57N 52°25' E 004°45'0 0.0
2017-Oct-13 03:27N 52°25' E 004°45'0 0.0
2017-Oct-13 03:00N 52°25' E 004°45'0 0.0
2017-Oct-13 02:30N 52°25' E 004°45'0 0.0
2017-Oct-13 02:00N 52°25' E 004°45'0 0.0
2017-Oct-13 01:27N 52°25' E 004°45'0 0.0
2017-Oct-13 00:57N 52°25' E 004°45'0 0.0
2017-Oct-13 00:24N 52°25' E 004°45'0 0.0
2017-Oct-12 23:57N 52°25' E 004°45'0 0.0
2017-Oct-12 23:30N 52°25' E 004°45'0 0.0
2017-Oct-12 23:00N 52°25' E 004°45'0 0.0
2017-Oct-12 22:30N 52°25' E 004°45'0 0.0
2017-Oct-12 22:00N 52°25' E 004°45'0 0.0
2017-Oct-12 21:27N 52°25' E 004°45'0 0.0
2017-Oct-12 20:57N 52°25' E 004°45'0 0.0
2017-Oct-12 20:30N 52°25' E 004°45'0 0.0
2017-Oct-12 19:57N 52°25' E 004°45'0 0.0
2017-Oct-12 19:30N 52°25' E 004°45'0 0.0
2017-Oct-12 18:57N 52°25' E 004°45'0 0.0
2017-Oct-12 18:30N 52°25' E 004°45'0 0.0
2017-Oct-12 18:00N 52°25' E 004°45'0 0.0
2017-Oct-12 17:30N 52°25' E 004°45'0 0.0
2017-Oct-12 17:00N 52°25' E 004°45'0 0.0
2017-Oct-12 16:21N 52°25' E 004°45'0 0.0
2017-Oct-12 15:57N 52°25' E 004°45'0 0.0
2017-Oct-12 15:24N 52°25' E 004°45'0 0.0
2017-Oct-12 15:00N 52°25' E 004°45'0 0.0
2017-Oct-12 14:24N 52°25' E 004°45'0 0.0
2017-Oct-12 14:00N 52°25' E 004°45'0 0.0
2017-Oct-12 13:30N 52°25' E 004°45'0 0.0
2017-Oct-12 13:00N 52°25' E 004°45'0 0.0
2017-Oct-12 12:30N 52°25' E 004°45'0 0.0
2017-Oct-12 11:54N 52°25' E 004°45'0 0.0
2017-Oct-12 11:27N 52°25' E 004°45'0 0.0
2017-Oct-12 10:51N 52°25' E 004°45'0 0.0
2017-Oct-12 09:48N 52°25' E 004°45'0 0.0
2017-Oct-12 09:21N 52°25' E 004°45'0 0.0
2017-Oct-12 09:00N 52°25' E 004°45'0 0.0
2017-Oct-12 08:24N 52°25' E 004°45'0 0.0
2017-Oct-12 08:00N 52°25' E 004°45'0 0.0
2017-Oct-12 07:21N 52°25' E 004°45'0 0.0
2017-Oct-12 07:00N 52°25' E 004°45'0 0.0
2017-Oct-12 06:21N 52°25' E 004°45'0 0.0
2017-Oct-12 05:54N 52°25' E 004°45'0 0.0
2017-Oct-12 05:27N 52°25' E 004°45'0 0.0
2017-Oct-12 05:00N 52°25' E 004°45'0 0.0
2017-Oct-12 04:30N 52°25' E 004°45'0 0.0
2017-Oct-12 03:54N 52°25' E 004°45'0 0.0
2017-Oct-12 03:30N 52°25' E 004°45'0 0.0
2017-Oct-12 02:51N 52°25' E 004°45'0 0.0
2017-Oct-12 02:24N 52°25' E 004°45'0 0.0
2017-Oct-12 02:00N 52°25' E 004°45'0 0.0
2017-Oct-12 01:30N 52°25' E 004°45'0 0.0
2017-Oct-12 01:00N 52°25' E 004°45'0 0.0
2017-Oct-12 00:30N 52°25' E 004°45'0 0.0
2017-Oct-12 00:00N 52°25' E 004°45'0 0.0
2017-Oct-11 23:30N 52°25' E 004°45'0 0.0
2017-Oct-11 23:00N 52°25' E 004°45'0 0.0
2017-Oct-11 22:30N 52°25' E 004°45'0 0.0
2017-Oct-11 22:00N 52°25' E 004°45'0 0.0
2017-Oct-11 21:30N 52°25' E 004°45'0 0.0
2017-Oct-11 21:00N 52°25' E 004°45'0 0.0
2017-Oct-11 20:24N 52°25' E 004°45'0 0.0
2017-Oct-11 20:00N 52°25' E 004°45'  
Track history (hours):
 
Tides and Currents Weather Stations Pressure Air Temp Water Temp Dewpoint Dewpoint Depression Visibility Wind Speed Wind Dir Waves Ship Positions

Alburaq

Last reported at 2017-Oct-21 19:36 UTC. Time now 2017-Oct-22 05:01 UTC.
Position N 37°02' E 001°27'.

Length 250 m; draft 13 m.

Type: Tanker. MMSI: 370467000.

Date/timePositionNaut miles runAvg speedWind from/ knotsBaromVisibWave heightAir tempDewpointWater temp
2017-Oct-21 19:36N 37°02' E 001°27'112.8
2017-Oct-21 19:31N 37°01' E 001°25'712.9
2017-Oct-21 19:00N 36°59' E 001°17'612.8
2017-Oct-21 18:31N 36°58' E 001°10'712.9
2017-Oct-21 18:00N 36°56' E 001°02'713.2
2017-Oct-21 17:30N 36°54' E 000°54'713.3
2017-Oct-21 17:00N 36°53' E 000°46'713.6
2017-Oct-21 16:30N 36°51' E 000°38'713.6
2017-Oct-21 16:01N 36°49' E 000°29'713.5
2017-Oct-21 15:30N 36°47' E 000°21'713.4
2017-Oct-21 15:00N 36°46' E 000°13'713.5
2017-Oct-21 14:31N 36°44' E 000°05'1513.5
2017-Oct-21 13:24N 36°40' W 000°13'613.3
2017-Oct-21 12:55N 36°38' W 000°21'23914.2
2017-Oct-20 20:05N 36°01' W 005°14'116.5
2017-Oct-20 20:00N 36°01' W 005°16'916.9
2017-Oct-20 19:29N 35°58' W 005°26'25911.8
2017-Oct-19 21:28N 38°12' W 010°03'713.8
2017-Oct-19 20:56N 38°19' W 010°05'813.7
2017-Oct-19 20:23N 38°27' W 010°07'513.3
2017-Oct-19 20:00N 38°32' W 010°09'713.5
2017-Oct-19 19:30N 38°38' W 010°10'712.9
2017-Oct-19 19:00N 38°45' W 010°11'713.4
2017-Oct-19 18:30N 38°51' W 010°11'714.1
2017-Oct-19 18:00N 38°58' W 010°11'714.2
2017-Oct-19 17:30N 39°06' W 010°11'713.9
2017-Oct-19 17:01N 39°12' W 010°11'53412.7
2017-Oct-17 23:07N 47°45' W 006°45'412.8
2017-Oct-17 22:46N 47°49' W 006°42'612.7
2017-Oct-17 22:20N 47°54' W 006°38'10711.9
2017-Oct-17 13:22N 49°15' W 004°54'2411.8
2017-Oct-17 11:21N 49°27' W 004°22'813.1
2017-Oct-17 10:45N 49°31' W 004°11'913.5
2017-Oct-17 10:03N 49°36' W 003°59'813.6
2017-Oct-17 09:26N 49°40' W 003°48'1213.4
2017-Oct-17 08:34N 49°46' W 003°32'113.1
2017-Oct-17 08:30N 49°46' W 003°31'612.6
2017-Oct-17 08:01N 49°49' W 003°23'612.0
2017-Oct-17 07:30N 49°52' W 003°15'611.4
2017-Oct-17 07:01N 49°55' W 003°07'510.7
2017-Oct-17 06:30N 49°58' W 002°60'5 9.6
2017-Oct-17 06:00N 49°59' W 002°53'4 8.5
2017-Oct-17 05:29N 50°01' W 002°46'4 8.3
2017-Oct-17 05:00N 50°02' W 002°40'6110.9
2017-Oct-16 23:26N 50°18' W 001°09'2713.1
2017-Oct-16 21:25N 50°25' W 000°28'1311.9
2017-Oct-16 20:18N 50°28' W 000°08'311.3
2017-Oct-16 20:00N 50°29' W 000°03'611.2
2017-Oct-16 19:30N 50°30' E 000°05'511.0
2017-Oct-16 19:00N 50°32' E 000°14'510.7
2017-Oct-16 18:30N 50°33' E 000°22'511.0
2017-Oct-16 18:00N 50°35' E 000°30'611.1
2017-Oct-16 17:30N 50°37' E 000°38'611.4
2017-Oct-16 17:00N 50°40' E 000°46'612.1
2017-Oct-16 16:30N 50°44' E 000°53'612.6
2017-Oct-16 16:00N 50°47' E 001°01'713.1
2017-Oct-16 15:28N 50°51' E 001°10'613.3
2017-Oct-16 15:00N 50°55' E 001°19'713.3
2017-Oct-16 14:30N 51°00' E 001°25'1212.2
2017-Oct-16 13:30N 51°09' E 001°39'611.5
2017-Oct-16 13:00N 51°13' E 001°45'511.0
2017-Oct-16 12:30N 51°17' E 001°50'611.2
2017-Oct-16 12:00N 51°23' E 001°53'510.9
2017-Oct-16 11:30N 51°27' E 001°57'611.4
2017-Oct-16 11:00N 51°32' E 002°04'611.3
2017-Oct-16 10:30N 51°36' E 002°10'611.2
2017-Oct-16 10:00N 51°40' E 002°16'611.5
2017-Oct-16 09:30N 51°44' E 002°22'612.0
2017-Oct-16 09:00N 51°48' E 002°29'612.6
2017-Oct-16 08:30N 51°53' E 002°36'713.1
2017-Oct-16 08:00N 51°58' E 002°42'813.5
2017-Oct-16 07:24N 52°05' E 002°50'913.7
2017-Oct-16 06:46N 52°11' E 002°59'613.8
2017-Oct-16 06:19N 52°16' E 003°05'713.7
2017-Oct-16 05:49N 52°22' E 003°12'413.0
2017-Oct-16 05:30N 52°24' E 003°18'713.4
2017-Oct-16 05:00N 52°26' E 003°28'713.2
2017-Oct-16 04:30N 52°29' E 003°39'612.6
2017-Oct-16 04:00N 52°30' E 003°48'612.7
2017-Oct-16 03:30N 52°30' E 003°59'612.4
2017-Oct-16 03:00N 52°30' E 004°09'611.4
2017-Oct-16 02:30N 52°30' E 004°18'510.6
2017-Oct-16 02:00N 52°29' E 004°27'5 9.9
2017-Oct-16 01:30N 52°28' E 004°35'1 1.9
2017-Oct-16 01:00N 52°28' E 004°37'0 0.1
2017-Oct-16 00:30N 52°28' E 004°37'1 2.1
2017-Oct-16 00:00N 52°28' E 004°38'3 5.5
2017-Oct-15 23:31N 52°26' E 004°42'2 4.4
2017-Oct-15 23:01N 52°25' E 004°45'0 0.3
2017-Oct-15 22:27N 52°25' E 004°45'0 0.0
2017-Oct-15 22:00N 52°25' E 004°45'0 0.0
2017-Oct-15 21:00N 52°25' E 004°45'0 0.0
2017-Oct-15 20:30N 52°25' E 004°45'0 0.0
2017-Oct-15 20:00N 52°25' E 004°45'0 0.0
2017-Oct-15 19:27N 52°25' E 004°45'0 0.0
2017-Oct-15 19:00N 52°25' E 004°45'0 0.0
2017-Oct-15 18:18N 52°25' E 004°45'0 0.0
2017-Oct-15 17:57N 52°25' E 004°45'0 0.0
2017-Oct-15 17:30N 52°25' E 004°45'0 0.0
2017-Oct-15 16:54N 52°25' E 004°45'0 0.0
2017-Oct-15 16:18N 52°25' E 004°45'0 0.0
2017-Oct-15 16:00N 52°25' E 004°45'0 0.0
2017-Oct-15 15:30N 52°25' E 004°45'0 0.0
2017-Oct-15 15:00N 52°25' E 004°45'0 0.0
2017-Oct-15 14:00N 52°25' E 004°45'0 0.0
2017-Oct-15 13:30N 52°25' E 004°45'0 0.0
2017-Oct-15 12:57N 52°25' E 004°45'0 0.0
2017-Oct-15 12:30N 52°25' E 004°45'0 0.0
2017-Oct-15 11:57N 52°25' E 004°45'0 0.0
2017-Oct-15 11:21N 52°25' E 004°45'0 0.0
2017-Oct-15 10:51N 52°25' E 004°45'0 0.0
2017-Oct-15 10:30N 52°25' E 004°45'0 0.0
2017-Oct-15 10:00N 52°25' E 004°45'0 0.0
2017-Oct-15 09:24N 52°25' E 004°45'0 0.0
2017-Oct-15 08:51N 52°25' E 004°45'0 0.0
2017-Oct-15 08:21N 52°25' E 004°45'0 0.0
2017-Oct-15 07:54N 52°25' E 004°45'0 0.0
2017-Oct-15 07:24N 52°25' E 004°45'0 0.0
2017-Oct-15 07:00N 52°25' E 004°45'0 0.0
2017-Oct-15 06:24N 52°25' E 004°45'0 0.0
2017-Oct-15 05:57N 52°25' E 004°45'0 0.0
2017-Oct-15 05:30N 52°25' E 004°45'0 0.0
2017-Oct-15 05:00N 52°25' E 004°45'0 0.0
2017-Oct-15 04:30N 52°25' E 004°45'0 0.0
2017-Oct-15 03:54N 52°25' E 004°45'0 0.0
2017-Oct-15 03:30N 52°25' E 004°45'0 0.0
2017-Oct-15 02:48N 52°25' E 004°45'0 0.0
2017-Oct-15 02:24N 52°25' E 004°45'0 0.0
2017-Oct-15 02:00N 52°25' E 004°45'0 0.0
2017-Oct-15 01:24N 52°25' E 004°45'0 0.0
2017-Oct-15 00:57N 52°25' E 004°45'0 0.0
2017-Oct-15 00:27N 52°25' E 004°45'0 0.0
2017-Oct-15 00:00N 52°25' E 004°45'0 0.0
2017-Oct-14 23:30N 52°25' E 004°45'0 0.0
2017-Oct-14 23:00N 52°25' E 004°45'0 0.0
2017-Oct-14 22:27N 52°25' E 004°45'0 0.0
2017-Oct-14 22:00N 52°25' E 004°45'0 0.0
2017-Oct-14 21:30N 52°25' E 004°45'0 0.0
2017-Oct-14 21:00N 52°25' E 004°45'0 0.0
2017-Oct-14 20:30N 52°25' E 004°45'0 0.0
2017-Oct-14 20:00N 52°25' E 004°45'0 0.0
2017-Oct-14 19:30N 52°25' E 004°45'0 0.0
2017-Oct-14 19:00N 52°25' E 004°45'0 0.0
2017-Oct-14 18:30N 52°25' E 004°45'0 0.0
2017-Oct-14 18:00N 52°25' E 004°45'0 0.0
2017-Oct-14 17:24N 52°25' E 004°45'0 0.0
2017-Oct-14 16:57N 52°25' E 004°45'0 0.0
2017-Oct-14 16:24N 52°25' E 004°45'0 0.0
2017-Oct-14 15:51N 52°25' E 004°45'0 0.0
2017-Oct-14 15:30N 52°25' E 004°45'0 0.0
2017-Oct-14 15:00N 52°25' E 004°45'0 0.0
2017-Oct-14 14:30N 52°25' E 004°45'0 0.0
2017-Oct-14 14:00N 52°25' E 004°45'0 0.0
2017-Oct-14 13:27N 52°25' E 004°45'0 0.0
2017-Oct-14 12:54N 52°25' E 004°45'0 0.0
2017-Oct-14 12:21N 52°25' E 004°45'0 0.0
2017-Oct-14 11:57N 52°25' E 004°45'0 0.0
2017-Oct-14 11:30N 52°25' E 004°45'0 0.0
2017-Oct-14 11:00N 52°25' E 004°45'0 0.0
2017-Oct-14 10:30N 52°25' E 004°45'0 0.0
2017-Oct-14 09:48N 52°25' E 004°45'0 0.0
2017-Oct-14 09:30N 52°25' E 004°45'0 0.0
2017-Oct-14 09:00N 52°25' E 004°45'0 0.0
2017-Oct-14 08:27N 52°25' E 004°45'0 0.0
2017-Oct-14 05:57N 52°25' E 004°45'0 0.0
2017-Oct-14 05:30N 52°25' E 004°45'0 0.0
2017-Oct-14 05:00N 52°25' E 004°45'0 0.0
2017-Oct-14 04:30N 52°25' E 004°45'0 0.0
2017-Oct-14 03:57N 52°25' E 004°45'0 0.0
2017-Oct-14 03:21N 52°25' E 004°45'0 0.0
2017-Oct-14 03:00N 52°25' E 004°45'0 0.0
2017-Oct-14 02:30N 52°25' E 004°45'0 0.0
2017-Oct-14 01:57N 52°25' E 004°45'0 0.0
2017-Oct-14 01:30N 52°25' E 004°45'0 0.0
2017-Oct-14 00:57N 52°25' E 004°45'0 0.0
2017-Oct-14 00:27N 52°25' E 004°45'0 0.0
2017-Oct-14 00:00N 52°25' E 004°45'0 0.0
2017-Oct-13 23:30N 52°25' E 004°45'0 0.0
2017-Oct-13 23:00N 52°25' E 004°45'0 0.0
2017-Oct-13 22:27N 52°25' E 004°45'0 0.0
2017-Oct-13 21:42N 52°25' E 004°45'0 0.0
2017-Oct-13 21:30N 52°25' E 004°45'0 0.0
2017-Oct-13 20:57N 52°25' E 004°45'0 0.0
2017-Oct-13 20:24N 52°25' E 004°45'0 0.0
2017-Oct-13 20:00N 52°25' E 004°45'0 0.0
2017-Oct-13 19:30N 52°25' E 004°45'0 0.0
2017-Oct-13 19:00N 52°25' E 004°45'0 0.0
2017-Oct-13 18:27N 52°25' E 004°45'0 0.0
2017-Oct-13 17:57N 52°25' E 004°45'0 0.0
2017-Oct-13 17:30N 52°25' E 004°45'0 0.0
2017-Oct-13 16:51N 52°25' E 004°45'0 0.0
2017-Oct-13 16:18N 52°25' E 004°45'0 0.0
2017-Oct-13 15:48N 52°25' E 004°45'0 0.0
2017-Oct-13 15:30N 52°25' E 004°45'0 0.0
2017-Oct-13 15:00N 52°25' E 004°45'0 0.0
2017-Oct-13 14:30N 52°25' E 004°45'0 0.0
2017-Oct-13 13:54N 52°25' E 004°45'0 0.0
2017-Oct-13 13:30N 52°25' E 004°45'0 0.0
2017-Oct-13 13:00N 52°25' E 004°45'0 0.0
2017-Oct-13 12:30N 52°25' E 004°45'0 0.0
2017-Oct-13 11:51N 52°25' E 004°45'0 0.0
2017-Oct-13 11:27N 52°25' E 004°45'0 0.0
2017-Oct-13 11:00N 52°25' E 004°45'0 0.0
2017-Oct-13 10:30N 52°25' E 004°45'0 0.0
2017-Oct-13 09:57N 52°25' E 004°45'0 0.0
2017-Oct-13 09:27N 52°25' E 004°45'0 0.0
2017-Oct-13 08:30N 52°25' E 004°45'0 0.0
2017-Oct-13 08:00N 52°25' E 004°45'0 0.0
2017-Oct-13 07:30N 52°25' E 004°45'0 0.0
2017-Oct-13 06:54N 52°25' E 004°45'0 0.0
2017-Oct-13 06:30N 52°25' E 004°45'0 0.0
2017-Oct-13 06:00N 52°25' E 004°45'0 0.0
2017-Oct-13 05:30N 52°25' E 004°45'0 0.0
2017-Oct-13 05:00N 52°25' E 004°45'0 0.0
2017-Oct-13 04:30N 52°25' E 004°45'0 0.0
2017-Oct-13 03:57N 52°25' E 004°45'0 0.0
2017-Oct-13 03:27N 52°25' E 004°45'0 0.0
2017-Oct-13 03:00N 52°25' E 004°45'0 0.0
2017-Oct-13 02:30N 52°25' E 004°45'0 0.0
2017-Oct-13 02:00N 52°25' E 004°45'0 0.0
2017-Oct-13 01:27N 52°25' E 004°45'0 0.0
2017-Oct-13 00:57N 52°25' E 004°45'0 0.0
2017-Oct-13 00:24N 52°25' E 004°45'0 0.0
2017-Oct-12 23:57N 52°25' E 004°45'0 0.0
2017-Oct-12 23:30N 52°25' E 004°45'0 0.0
2017-Oct-12 23:00N 52°25' E 004°45'0 0.0
2017-Oct-12 22:30N 52°25' E 004°45'0 0.0
2017-Oct-12 22:00N 52°25' E 004°45'0 0.0
2017-Oct-12 21:27N 52°25' E 004°45'0 0.0
2017-Oct-12 20:57N 52°25' E 004°45'0 0.0
2017-Oct-12 20:30N 52°25' E 004°45'0 0.0
2017-Oct-12 19:57N 52°25' E 004°45'0 0.0
2017-Oct-12 19:30N 52°25' E 004°45'0 0.0
2017-Oct-12 18:57N 52°25' E 004°45'0 0.0
2017-Oct-12 18:30N 52°25' E 004°45'0 0.0
2017-Oct-12 18:00N 52°25' E 004°45'0 0.0
2017-Oct-12 17:30N 52°25' E 004°45'0 0.0
2017-Oct-12 17:00N 52°25' E 004°45'0 0.0
2017-Oct-12 16:21N 52°25' E 004°45'0 0.0
2017-Oct-12 15:57N 52°25' E 004°45'0 0.0
2017-Oct-12 15:24N 52°25' E 004°45'0 0.0
2017-Oct-12 15:00N 52°25' E 004°45'0 0.0
2017-Oct-12 14:24N 52°25' E 004°45'0 0.0
2017-Oct-12 14:00N 52°25' E 004°45'0 0.0
2017-Oct-12 13:30N 52°25' E 004°45'0 0.0
2017-Oct-12 13:00N 52°25' E 004°45'0 0.0
2017-Oct-12 12:30N 52°25' E 004°45'0 0.0
2017-Oct-12 11:54N 52°25' E 004°45'0 0.0
2017-Oct-12 11:27N 52°25' E 004°45'0 0.0
2017-Oct-12 10:51N 52°25' E 004°45'0 0.0
2017-Oct-12 09:48N 52°25' E 004°45'0 0.0
2017-Oct-12 09:21N 52°25' E 004°45'0 0.0
2017-Oct-12 09:00N 52°25' E 004°45'0 0.0
2017-Oct-12 08:24N 52°25' E 004°45'0 0.0
2017-Oct-12 08:00N 52°25' E 004°45'0 0.0
2017-Oct-12 07:21N 52°25' E 004°45'0 0.0
2017-Oct-12 07:00N 52°25' E 004°45'0 0.0
2017-Oct-12 06:21N 52°25' E 004°45'0 0.0
2017-Oct-12 05:54N 52°25' E 004°45'0 0.0
2017-Oct-12 05:27N 52°25' E 004°45'0 0.0
2017-Oct-12 05:00N 52°25' E 004°45'0 0.0
2017-Oct-12 04:30N 52°25' E 004°45'0 0.0
2017-Oct-12 03:54N 52°25' E 004°45'0 0.0
2017-Oct-12 03:30N 52°25' E 004°45'0 0.0
2017-Oct-12 02:51N 52°25' E 004°45'0 0.0
2017-Oct-12 02:24N 52°25' E 004°45'0 0.0
2017-Oct-12 02:00N 52°25' E 004°45'0 0.0
2017-Oct-12 01:30N 52°25' E 004°45'0 0.0
2017-Oct-12 01:00N 52°25' E 004°45'0 0.0
2017-Oct-12 00:30N 52°25' E 004°45'0 0.0
2017-Oct-12 00:00N 52°25' E 004°45'0 0.0
2017-Oct-11 23:30N 52°25' E 004°45'0 0.0
2017-Oct-11 23:00N 52°25' E 004°45'0 0.0
2017-Oct-11 22:30N 52°25' E 004°45'0 0.0
2017-Oct-11 22:00N 52°25' E 004°45'0 0.0
2017-Oct-11 21:30N 52°25' E 004°45'0 0.0
2017-Oct-11 21:00N 52°25' E 004°45'0 0.0
2017-Oct-11 20:24N 52°25' E 004°45'0 0.0
2017-Oct-11 20:00N 52°25' E 004°45'  

Dump ship's entire track history